[[{"header":{"parameterUnit":"m.s-1","parameterCategory":1,"la1":30.2991,"la2":30.254,"lo1":-89.0895,"lo2":-89.0444,"dy":0.0017,"dx":0.0017,"nx":28,"ny":28,"refTime":"2025-12-16T09:00:00:Z","depth":0,"parameterNumber":2,"parameterNumberName":"U-component_of_WINDS"},"data":[0,0,0,0,0,0,0,0,0,0,0,0,0,0,0,0,0,0,0,0,0,0,0,0,0,0,0,0,0,0,0,0,0,0,0,0,0,0,0,0,0,0,0,0,0,0,0,0,0,0,0,0,0,0,0,0,0,0,-7.0099,-7.01,0,-7.0194,-7.0195,-7.0196,-7.0133,-7.013,-7.0128,-7.0125,-7.0218,-7.0223,-7.0228,0,0,0,0,0,0,0,0,0,0,0,0,0,-6.9862,-6.9867,-7.0099,-7.01,-7.0102,-7.0194,-7.0195,-7.0197,-7.0134,-7.013,-7.0127,-7.0124,-7.0217,-7.0223,-7.0229,0,0,0,0,0,0,0,0,0,0,0,0,0,-6.9962,-6.9868,-7.0099,-7.0082,-7.0081,-7.0194,-7.0195,-7.0197,-7.0135,-7.013,-7.0126,-7.0122,-7.0215,-7.0222,-7.023,-7.0364,0,0,-7.0253,-7.0257,0,0,0,0,0,0,0,0,-6.9956,-6.9971,-7.0083,-7.0083,-7.0082,-7.0148,-7.0146,-7.0253,-7.0136,-7.0114,-7.0125,-7.012,-7.0198,-7.0207,-7.0234,-7.0368,-7.0372,-7.0254,-7.0259,-7.0262,-7.0264,0,0,0,0,0,0,0,-6.9949,-6.9966,-7.0137,-7.0085,-7.0084,-7.0068,-7.0078,-7.0166,-7.0179,-7.0116,-7.0111,-7.0124,-7.0197,-7.0227,-7.0236,-7.0374,-7.0254,-7.0261,-7.0266,-7.0269,-7.0624,-7.0628,0,0,0,0,0,0,-6.9944,-6.9961,-7.0134,-7.0139,-7.0008,-7.0076,-7.0087,-7.0131,-7.0178,-7.0181,-7.0127,-7.012,-7.0216,-7.0227,-7.0239,-7.0398,-7.0262,-7.0269,-7.0274,-7.0619,-7.0625,-7.063,0,0,0,0,0,0,-6.9939,-6.996,-7.013,-7.0049,-7.0069,-7.0085,-7.0135,-7.0135,-7.0164,-7.0187,-7.0188,-7.0155,-7.0213,-7.0228,-7.0334,-7.0401,-7.0273,-7.028,-7.0613,-7.0621,-7.0627,-7.0719,0,0,0,0,0,0,-6.9933,-6.9959,-7.001,-7.0051,-7.0074,-7.0224,-7.0139,-7.014,-7.0179,-7.017,-7.0213,-7.0216,-7.021,-7.0322,-7.0341,-7.0409,-7.0286,-7.0607,-7.0617,-7.0625,-7.071,-7.0728,-7.0744,0,0,0,0,0,-6.9925,-7.0031,-7.0013,-7.0034,-7.0138,-7.0228,-7.0241,-7.0233,-7.0184,-7.0235,-7.025,-7.0215,-7.0392,-7.0334,-7.0355,-7.0426,-7.0603,-7.0614,-7.0625,-7.0702,-7.0725,-7.0744,0,0,0,0,0,0,-6.9995,-7.0036,-7.0016,-7.0139,-7.0181,-7.0217,-7.0281,-7.0257,-7.0312,-7.0302,-7.0289,-7.0299,-7.041,-7.0429,-7.0364,-7.0559,-7.0489,-7.0505,-7.0541,-7.0563,-7.058,-7.0571,-7.0292,0,0,0,0,0,-7.0026,-7.0096,-7.0127,-7.0232,-7.0255,-7.0265,-7.0303,-7.0294,-7.0336,-7.0353,-7.0375,-7.0416,-7.0481,-7.0524,-7.0585,-7.0714,-7.0722,-7.0774,-7.0791,-7.0805,-7.0817,-7.0887,-7.091,-7.0665,-7.0665,-7.0665,0,0,-7.0088,-7.0119,-7.0163,-7.0247,-7.0278,-7.035,-7.0279,-7.0358,-7.0411,-7.0364,-7.0465,-7.0484,-7.0529,-7.0648,-7.0701,-7.0667,-7.0887,-7.0818,-7.0829,-7.0834,-7.09,-7.0923,-7.0944,-7.0673,-7.0671,-7.067,0,0,-7.0237,-7.0269,-7.036,-7.0394,-7.0443,-7.0449,-7.0472,-7.0513,-7.0524,-7.0626,-7.0592,-7.0656,-7.0768,-7.0802,-7.0833,-7.1001,-7.097,-7.1022,-7.1109,-7.1178,-7.1197,-7.1214,-7.1272,-7.1293,-7.1035,-7.1035,-7.1035,0,-7.0307,-7.0415,-7.0409,-7.0491,-7.0529,-7.0494,-7.0585,-7.0618,-7.0684,-7.0711,-7.0673,-7.0814,-7.0842,-7.0968,-7.1009,-7.1037,-7.1061,-7.1014,-7.1195,-7.1212,-7.1227,-7.1283,-7.1305,-7.1041,-7.104,-7.1039,-7.1039,0,-7.0499,-7.0575,-7.0642,-7.0709,-7.0755,-7.0842,-7.0849,-7.0896,-7.0885,-7.0896,-7.1001,-7.1035,-7.1102,-7.1132,-7.1121,-7.1257,-7.1234,-7.1197,-7.1126,-7.1256,-7.1308,-7.1329,-7.1049,-7.1047,-7.1045,-7.1044,0,0,-7.0689,-7.0756,-7.078,-7.081,-7.0864,-7.0922,-7.1009,-7.1076,-7.1117,-7.1166,-7.1236,-7.1334,-7.13,-7.1336,-7.133,-7.139,-7.152,-7.1344,-7.1345,-7.1374,-7.1671,-7.1697,-7.1721,-7.1502,-7.1506,-7.1509,-7.1666,0,-7.084,-7.099,-7.099,-7.1128,-7.1198,-7.1168,-7.1243,-7.1284,-7.1298,-7.1359,-7.1374,-7.1443,-7.1394,-7.1415,-7.1475,-7.1491,-7.1578,-7.1481,-7.1565,-7.1569,-7.1551,-7.1748,-7.1775,-7.1922,-7.1687,-7.169,-7.1693,0,-7.1034,-7.1091,-7.1237,-7.1283,-7.1312,-7.138,-7.1442,-7.1502,-7.1549,-7.1555,-7.1598,-7.1583,-7.167,-7.1601,-7.1721,-7.1655,-7.169,-7.1705,-7.171,-7.1714,-7.1635,-7.1755,-7.1968,-7.1989,-7.1725,-7.1722,-7.172,0,-7.1156,-7.127,-7.1372,-7.1399,-7.1456,-7.1504,-7.1529,-7.1572,-7.1614,-7.1669,-7.1696,-7.1761,-7.1796,-7.1846,-7.1849,-7.1799,-7.197,-7.1901,-7.1976,-7.1976,-7.2009,-7.2006,-7.2228,-7.2038,-7.2038,-7.2038,-7.2037,0,-7.1322,-7.1412,-7.1427,-7.149,-7.159,-7.159,-7.1689,-7.171,-7.175,-7.1815,-7.1795,-7.1857,-7.1858,-7.1922,-7.1925,-7.2023,-7.204,-7.2046,-7.2045,-7.2046,-7.2045,-7.2066,-7.2054,-7.2043,-7.2042,-7.2041,-7.204,0,-7.1472,-7.1486,-7.1596,-7.1642,-7.1656,-7.1728,-7.1767,-7.1826,-7.1841,-7.1924,-7.1944,-7.1966,-7.204,-7.2049,-7.2136,-7.2138,-7.2255,-7.2245,-7.224,-7.2237,-7.231,-7.2302,-7.2549,-7.2581,-7.2375,-7.2377,-7.2378,0,-7.1574,-7.1643,-7.1698,-7.1742,-7.1771,-7.1841,-7.1884,-7.1888,-7.1934,-7.1995,-7.2047,-7.212,-7.2177,-7.2298,-7.232,-7.2387,-7.2376,-7.2459,-7.2385,-7.2385,-7.2374,-7.2369,-7.2375,-7.2471,-7.2473,-7.2475,-7.2477,0,-7.1755,-7.176,-7.1823,-7.1891,-7.1944,-7.1996,-7.2046,-7.2083,-7.2093,-7.2146,-7.2222,-7.2268,-7.2358,-7.243,-7.2496,-7.2522,-7.2501,-7.2501,-7.2521,-7.252,-7.2513,-7.2516,-7.2274,-7.2494,-7.2492,-7.2491,-7.249,-7.2489,-7.1882,-7.1942,-7.1991,-7.2063,-7.2102,-7.215,-7.2208,-7.2232,-7.2296,-7.237,-7.2369,-7.2454,-7.2501,-7.2588,-7.262,-7.2685,-7.2658,-7.2688,-7.2695,-7.2701,-7.2707,-7.2507,-7.2698,-7.2697,-7.2697,-7.2697,-7.2696,0,-7.2059,-7.209,-7.2157,-7.2228,-7.2286,-7.2265,-7.232,-7.2369,-7.2443,-7.2491,-7.2549,-7.2638,-7.2709,-7.274,-7.281,-7.2856,-7.2849,-7.2874,-7.2869,-7.2875,-7.2729,-7.2703,-7.2879,-7.2879,-7.2879,-7.2879,-7.2879,-7.2879,-7.2157,-7.2257,-7.2269,-7.2389,-7.242,-7.2503,-7.2536,-7.258,-7.2618,-7.2719,-7.2778,-7.2799,-7.284,-7.2913,-7.2977,-7.2985,-7.301,-7.3039,-7.3042,-7.2904,-7.2885,-7.2867,-7.2843,-7.3046,-7.3046,-7.3182,-7.3183,-7.3184]},{"header":{"parameterUnit":"m.s-1","parameterCategory":1,"la1":30.2991,"la2":30.254,"lo1":-89.0895,"lo2":-89.0444,"dy":0.0017,"dx":0.0017,"nx":28,"ny":28,"refTime":"2025-12-16T09:00:00:Z","depth":0,"parameterNumber":3,"parameterNumberName":"V-component_of_WINDS"},"data":[0,0,0,0,0,0,0,0,0,0,0,0,0,0,0,0,0,0,0,0,0,0,0,0,0,0,0,0,0,0,0,0,0,0,0,0,0,0,0,0,0,0,0,0,0,0,0,0,0,0,0,0,0,0,0,0,0,0,2.472,2.4721,0,2.4767,2.4767,2.4768,2.4746,2.4745,2.4744,2.4742,2.4787,2.4789,2.4792,0,0,0,0,0,0,0,0,0,0,0,0,0,2.4614,2.4616,2.472,2.4721,2.4722,2.4767,2.4767,2.4768,2.4746,2.4745,2.4743,2.4742,2.4786,2.4789,2.4792,0,0,0,0,0,0,0,0,0,0,0,0,0,2.466,2.4617,2.472,2.4716,2.4716,2.4766,2.4767,2.4768,2.4746,2.4745,2.4743,2.4741,2.4786,2.4789,2.4792,2.4848,0,0,2.4803,2.4804,0,0,0,0,0,0,0,0,2.4657,2.4664,2.4716,2.4717,2.4717,2.4749,2.4746,2.4795,2.4747,2.4735,2.4742,2.474,2.4776,2.478,2.4792,2.485,2.4852,2.4803,2.4805,2.4807,2.4807,0,0,0,0,0,0,0,2.4654,2.4662,2.4739,2.4717,2.4717,2.4712,2.4717,2.4755,2.4764,2.4736,2.4734,2.474,2.4775,2.4789,2.4793,2.4853,2.4803,2.4806,2.4808,2.4809,2.4964,2.4966,0,0,0,0,0,0,2.4651,2.4659,2.4737,2.474,2.4682,2.4716,2.4721,2.474,2.4764,2.4766,2.4742,2.4739,2.4784,2.4789,2.4795,2.4865,2.4806,2.481,2.4812,2.4962,2.4965,2.4967,0,0,0,0,0,0,2.4649,2.4659,2.4735,2.4699,2.4709,2.4719,2.4741,2.4742,2.4756,2.4768,2.477,2.4754,2.4783,2.479,2.4836,2.4866,2.4811,2.4814,2.496,2.4963,2.4966,2.5005,0,0,0,0,0,0,2.4646,2.4658,2.4679,2.47,2.4711,2.4776,2.4743,2.4744,2.4762,2.4759,2.478,2.4782,2.4782,2.4831,2.484,2.487,2.4817,2.4957,2.4961,2.4965,2.5001,2.5009,2.5016,0,0,0,0,0,2.4642,2.4686,2.468,2.4689,2.4737,2.4778,2.4784,2.4784,2.4764,2.4786,2.4795,2.4781,2.4861,2.4836,2.4846,2.4877,2.4955,2.496,2.4965,2.4997,2.5007,2.5015,0,0,0,0,0,0,2.4666,2.4689,2.4682,2.4734,2.4755,2.4774,2.4801,2.4793,2.4819,2.4815,2.4813,2.4818,2.4867,2.4876,2.4848,2.4935,2.4905,2.4912,2.4927,2.4937,2.4944,2.4941,2.482,0,0,0,0,0,2.4678,2.4709,2.4727,2.4771,2.4782,2.479,2.4808,2.4806,2.4827,2.4835,2.4847,2.4867,2.4898,2.4917,2.4945,2.5002,2.5008,2.5028,2.5036,2.5042,2.5048,2.5083,2.5093,2.4982,2.4982,2.4982,0,0,2.4701,2.4718,2.4737,2.4777,2.4792,2.4826,2.4797,2.4833,2.4858,2.484,2.4886,2.4896,2.4919,2.4972,2.4996,2.4981,2.508,2.5048,2.5052,2.5055,2.5089,2.5099,2.5108,2.4985,2.4985,2.4984,0,0,2.4762,2.4777,2.4817,2.4835,2.486,2.4865,2.4875,2.4897,2.4904,2.495,2.4939,2.4969,2.5019,2.5038,2.5053,2.5126,2.5116,2.5135,2.5174,2.5208,2.5216,2.5224,2.5253,2.5263,2.5141,2.5141,2.5141,0,2.4788,2.4838,2.4838,2.4877,2.4896,2.4883,2.4926,2.4942,2.4974,2.4988,2.4971,2.5039,2.5052,2.5111,2.513,2.5142,2.5155,2.5133,2.5215,2.5223,2.523,2.5258,2.5269,2.5143,2.5143,2.5143,2.5143,0,2.4871,2.4906,2.4936,2.4971,2.4993,2.5032,2.504,2.5062,2.506,2.5068,2.5117,2.5134,2.5167,2.5181,2.5177,2.5241,2.5232,2.5215,2.5186,2.5243,2.527,2.528,2.5147,2.5146,2.5145,2.5145,0,0,2.4946,2.4984,2.4995,2.5013,2.5041,2.5069,2.5109,2.5143,2.5164,2.5187,2.5223,2.5268,2.5255,2.5273,2.5272,2.5301,2.5362,2.5281,2.5282,2.5298,2.5437,2.5451,2.5463,2.5355,2.5357,2.5358,2.5436,0,2.5012,2.5084,2.5087,2.5153,2.5187,2.5178,2.5214,2.5236,2.5245,2.5276,2.5285,2.5319,2.5297,2.5309,2.5337,2.5349,2.539,2.5343,2.5389,2.5391,2.5386,2.5476,2.549,2.5563,2.5446,2.5448,2.5449,0,2.5097,2.5127,2.5197,2.5225,2.5239,2.5271,2.5306,2.5334,2.536,2.5365,2.5388,2.5383,2.5426,2.5395,2.5455,2.5423,2.5442,2.5451,2.5454,2.546,2.5425,2.5487,2.5585,2.5597,2.5464,2.5463,2.5462,0,2.5149,2.5206,2.5257,2.5271,2.5304,2.5328,2.5342,2.5366,2.5388,2.5418,2.5433,2.5466,2.5485,2.5511,2.5517,2.5493,2.5579,2.5546,2.5585,2.5586,2.5605,2.5604,2.571,2.5613,2.5613,2.5613,2.5613,0,2.5223,2.5267,2.5281,2.5312,2.5363,2.5366,2.5416,2.5429,2.5451,2.5486,2.5478,2.551,2.5515,2.5549,2.5553,2.5604,2.5612,2.5618,2.5619,2.562,2.562,2.5634,2.563,2.5616,2.5615,2.5615,2.5614,0,2.529,2.5301,2.5356,2.5384,2.5392,2.5428,2.5452,2.5483,2.5493,2.5537,2.5547,2.5562,2.5602,2.561,2.5656,2.566,2.5722,2.5716,2.5714,2.5714,2.5754,2.5751,2.5875,2.5893,2.5782,2.5783,2.5784,0,2.5337,2.5371,2.5405,2.5428,2.5445,2.5482,2.5506,2.5511,2.5536,2.5571,2.5598,2.5638,2.567,2.5734,2.5749,2.5786,2.5783,2.5824,2.5788,2.579,2.5787,2.5786,2.5791,2.5831,2.5832,2.5833,2.5834,0,2.5421,2.5426,2.5461,2.5499,2.5528,2.5558,2.5586,2.5605,2.5615,2.5644,2.5686,2.5711,2.5761,2.5801,2.5839,2.5854,2.5847,2.5845,2.5857,2.5859,2.5858,2.5863,2.5736,2.5842,2.5842,2.5841,2.5841,2.584,2.5482,2.5514,2.5544,2.5584,2.5606,2.5634,2.5666,2.5681,2.5716,2.5759,2.576,2.5807,2.5835,2.5884,2.5902,2.594,2.5927,2.5942,2.5947,2.5951,2.5957,2.585,2.5946,2.5946,2.5945,2.5945,2.5945,0,2.5569,2.5589,2.5625,2.5667,2.57,2.5691,2.5723,2.5751,2.5793,2.582,2.5853,2.5903,2.5943,2.5963,2.6003,2.6029,2.6028,2.604,2.6039,2.6044,2.5964,2.5952,2.6041,2.6041,2.6041,2.6041,2.6041,2.6041,2.5618,2.5673,2.5682,2.5749,2.5768,2.5815,2.5835,2.5861,2.5884,2.5941,2.5975,2.5988,2.6013,2.6056,2.6093,2.6098,2.6114,2.6129,2.6133,2.6058,2.6049,2.6039,2.6028,2.6132,2.6132,2.6209,2.621,2.6211]}]]